Flag for Spain Weather past 2 weeks in Alicante, Spain

Now
64 °F

Passing clouds.


Feels Like: 64 °F
Forecast: 56 / 83 °F
Wind: No wind

Location: Alicante / El Altet

Current Time: Jun 2, 2015 at 3:31:13 AM

Latest Report: Jun 2, 2015 at 3:00 AM


Visibility: N/A

Pressure: 30.09 "Hg

Humidity: 83%

Dew point: 59 °F

Location of AlicanteLocation

Historic Weather in Alicante — Graph

°F

Alicante temperature yesterday

Maximum temperature yesterday: 75 °F (at 12:00 PM)
Minimum temperature yesterday: 63 °F (at 5:30 AM)
Average temperature yesterday: 70 °F

Past Weeks' High & Low Weather Summary

 TemperatureHumidityPressure
High79 °F (May 26, 12:30 PM)94% (May 31, 5:00 AM)30.24 "Hg (May 31, 5:00 AM)
Low54 °F (May 23, 5:30 AM)27% (May 25, 4:30 PM)29.71 "Hg (May 19, 6:30 AM)
Average68 °F63%30.04 "Hg
* Reported May 18 2:00 AM — Jun 2 2:30 AM, Alicante, Weather by CustomWeather, © 2015

Note: Actual official high and low records may vary slightly from our data, if they occured in-between our weather recording intervals... More about our weather records

Advertising

Alicante weather history for previous 24 hours

 ConditionsComfort  
Time TempWeatherWind HumidityBarometerVisibility
2:30 AM
Tue, Jun 2
64 °FPassing clouds.No wind83%30.09 "HgN/A
2:00 AM64 °FPassing clouds.1 mph83%30.09 "HgN/A
1:30 AM64 °FPassing clouds.2 mph88%30.09 "HgN/A
1:00 AM66 °FPassing clouds.1 mph78%30.09 "HgN/A
12:30 AM68 °FClear.No wind78%30.09 "Hg10 mi
12:00 AM68 °FClear.No wind78%30.09 "Hg10 mi
11:30 PM
Mon, Jun 1
68 °FClear.No wind78%30.09 "Hg10 mi
11:00 PM68 °FClear.No wind73%30.09 "Hg10 mi
10:30 PM70 °FClear.No wind73%30.07 "Hg10 mi
10:00 PM70 °FSunny.No wind73%30.07 "Hg10 mi
9:30 PM70 °FSunny.1 mph73%30.07 "Hg10 mi
9:00 PM72 °FSunny.2 mph65%30.07 "Hg10 mi
8:30 PM72 °FPassing clouds.3 mph65%30.07 "HgN/A
8:00 PM72 °FPassing clouds.3 mph65%30.07 "HgN/A
7:30 PM72 °FPassing clouds.3 mph61%30.07 "HgN/A
7:00 PM73 °FPassing clouds.6 mph61%30.07 "HgN/A
6:30 PM73 °FPassing clouds.6 mph65%30.07 "HgN/A
6:00 PM75 °FPassing clouds.7 mph61%30.07 "HgN/A
5:30 PM75 °FPassing clouds.8 mph61%30.07 "HgN/A
4:30 PM75 °FScattered clouds.9 mph57%30.07 "HgN/A
4:00 PM75 °FScattered clouds.9 mph57%30.07 "HgN/A
3:30 PM75 °FScattered clouds.10 mph61%30.07 "HgN/A
3:00 PM75 °FScattered clouds.10 mph61%30.07 "HgN/A
2:30 PM75 °FScattered clouds.12 mph54%30.09 "HgN/A
2:00 PM75 °FScattered clouds.9 mph61%30.09 "HgN/A
1:30 PM75 °FPassing clouds.10 mph65%30.09 "HgN/A
1:00 PM75 °FPassing clouds.12 mph65%30.09 "HgN/A
12:30 PM75 °FScattered clouds.12 mph69%30.09 "HgN/A
12:00 PM75 °FScattered clouds.10 mph69%30.07 "HgN/A
11:30 AM73 °FScattered clouds.12 mph74%30.07 "HgN/A
11:00 AM73 °FPassing clouds.9 mph74%30.07 "HgN/A
10:30 AM73 °FPassing clouds.8 mph74%30.07 "HgN/A
10:00 AM73 °FPassing clouds.3 mph69%30.07 "HgN/A
9:30 AM72 °FPassing clouds.3 mph73%30.07 "HgN/A
9:00 AM72 °FPassing clouds.No wind73%30.07 "HgN/A
8:30 AM70 °FPassing clouds.No wind78%30.07 "HgN/A
8:00 AM68 °FPassing clouds.No wind83%30.07 "HgN/A
7:30 AM68 °FPassing clouds.2 mph83%30.07 "HgN/A
7:00 AM64 °FPassing clouds.No wind88%30.07 "HgN/A
6:30 AM64 °FPassing clouds.1 mph88%30.07 "HgN/A
6:00 AM64 °FPassing clouds.1 mph83%30.07 "HgN/A
5:30 AM63 °FPassing clouds.1 mph88%30.07 "HgN/A
5:00 AM64 °FPassing clouds.2 mph88%30.07 "HgN/A
4:30 AM64 °FPassing clouds.1 mph88%30.07 "HgN/A
4:00 AM64 °FPassing clouds.2 mph83%30.07 "HgN/A
3:30 AM64 °FPassing clouds.1 mph83%30.07 "HgN/A
3:00 AM66 °FPassing clouds.2 mph83%30.07 "HgN/A
Weather by CustomWeather, © 2015

See weather overviewHow to use our weather pages